Погода в Обильном

Россия / Республика Калмыкия     47°30′13″N   44°24′51″E
темп.,
°C
ветер,
м/с
пор.,
м/с
влажн.,
%
обл.,
%
осадки,
мм/ч
давл.,
гПа
погр.,
м
4 августа, ср
ср400:00+30з33223 0.0 101031
03:00+27сз3332100 0.0 101028
06:00+26сз574280 0.0 1011208
09:00+31ссз6634100 0.1 1012668
12:00+34ссз5528100 0.0 10121491
15:00+36сз6525100 0.0 10112553
18:00+34сз552889 0.0 10122078
21:00+29сз5937100 0.1 1013220
5 августа, чт
чт500:00+27ссв494729 0.0 1013311
03:00+25ссв5105152 0.0 1014443
06:00+24ссв48560 0.0 1015307
09:00+29св553795 0.0 1015866
12:00+32ссв5428100 0.0 10141852
15:00+33ссв43250 0.0 10142524
18:00+32св5424100 0.0 10132460
21:00+29всв51028100 0.0 1014308
6 августа, пт
пт600:00+26всв4102864 0.0 1014236
03:00+24всв493075 0.0 1014244
06:00+25всв493177 0.0 1014362
09:00+30в78246 0.0 10141056
12:00+33в66195 0.0 10131813
15:00+35в65175 0.0 10112156
18:00+34в66161 0.0 10102038
21:00+29в612210 0.0 1011291
7 августа, сб
сб700:00+27в613240 0.0 1011303
03:00+25всв412280 0.0 1011276
06:00+24всв61429100 0.0 1011384
09:00+31вюв91121100 0.0 1010948
12:00+36вюв8917100 0.0 10091987
15:00+38в8915100 0.0 10082549
18:00+36всв810160 0.0 10071376
21:00+32в8162095 0.0 1008513
8 августа, вс
вс800:00+29вюв4102466 0.0 1009192
03:00+28в51426100 0.0 1009397
06:00+27всв51125100 0.0 1010352
09:00+30всв51121100 0.0 1010560
12:00+36в8101573 0.0 10091812
15:00+38в79180 0.2 10071997
18:00+39всв68160 0.0 1005781
21:00+32ююз34280 0.0 100663